Voltar ao catálogo

FENGYUN 1C DEB

AtivoSSO
NORAD 31219·DEBRIS·🇨🇳 China

Lançado May 10, 1999 de Taiyuan Satellite Launch Center

Loading…

Próximas Passagens (próximas 24 horas)

TLE

AtualizadoSource: Space-Track

Época: Sep 13, 2026, 13:58 UTC

1 31219U 99025BKZ 26256.58208243  .00001587  00000-0  81756-3 0  9995
2 31219  99.2718 282.0694 0079223 126.0317 234.8230 14.15084195994550

Acompanhe FENGYUN 1C DEB em tempo real com AllMySat

Download on the App Store